Weather History for KLHX - June, 2014

Change the Weather History Date:

Thursday, June 19, 2014

  Actual Average Record
Temperature  
Mean Temperature 72 °F 74 °F  
Max Temperature 90 °F 90 °F 106 °F (2012)
Min Temperature 53 °F 58 °F 45 °F (1946)
Degree Days  
Heating Degree Days 0 0  
Month to date heating degree days 5 15  
Since 1 June heating degree days 5 15  
Since 1 July heating degree days 5191 5270  
Cooling Degree Days 7 9  
Month to date cooling degree days 175 127  
Year to date cooling degree days 297 200  
Since 1 June cooling degree days 175 127  
Growing Degree Days 22 (Base 50)    
Moisture  
Dew Point 43 °F    
Average Humidity 43    
Maximum Humidity 71    
Minimum Humidity 15    
Precipitation  
Precipitation 0.00 in 0.05 in 2.80 in (1948)
Month to date precipitation 0.20 0.88  
Year to date precipitation 2.87 5.17  
Sea Level Pressure  
Sea Level Pressure 29.89 in    
Wind  
Wind Speed 9 mph (SE)    
Max Wind Speed 24 mph    
Max Gust Speed 29 mph    
Visibility 10 miles    
Events      
T = Trace of Precipitation, MM = Missing Value Source: NWS Daily Summary

Daily Weather History Graph

Daily Weather History Graph

Search for Another Location

Airport or City:

Trip Planner

Search our weather history database for the weather conditions in past years. The results will help you decide how hot, cold, wet, or windy it might be!

Date:

Astronomy

Jun. 19, 2014 Rise Set
Actual Time 5:31 AM MDT 8:19 PM MDT
Civil Twilight 4:59 AM MDT 8:51 PM MDT
Nautical Twilight 4:20 AM MDT 9:30 PM MDT
Astronomical Twilight 3:35 AM MDT 10:15 PM MDT
Moon 12:30 AM MDT (6/19) 12:57 PM MDT (6/19)
Length of Visible Light 15h 51m
Length of Day
14h 48m
Waning Gibbous, 50% of the Moon is Illuminated
Jun 19
Waning Gibbous
Jun 19
Last Quarter
Jun 27
New
Jul 5
First Quarter
Jul 12
Full

Hourly Weather History & Observations

Time (MDT) Temp. Dew Point Humidity Pressure Visibility Wind Dir Wind Speed Gust Speed Precip Events Conditions
1:53 AM 61.0 °F 45.0 °F 56% 29.84 in 10.0 mi ENE 11.5 mph - N/A   Clear
2:53 AM 57.9 °F 44.1 °F 60% 29.87 in 10.0 mi East 4.6 mph - N/A   Clear
4:53 AM 57.0 °F 44.1 °F 62% 29.91 in 10.0 mi Calm Calm - N/A   Clear
5:53 AM 54.0 °F 44.1 °F 69% 29.96 in 10.0 mi West 6.9 mph - N/A   Clear
6:53 AM 59.0 °F 45.0 °F 60% 29.97 in 10.0 mi WNW 4.6 mph - N/A   Clear
7:53 AM 62.1 °F 45.0 °F 53% 29.98 in 10.0 mi Variable 3.5 mph - N/A   Clear
9:53 AM 68.0 °F 44.1 °F 42% 29.99 in 10.0 mi SE 10.4 mph 16.1 mph N/A   Clear
10:53 AM 70.0 °F 44.1 °F 39% 29.97 in 10.0 mi Calm Calm - N/A   Clear
11:53 AM 73.0 °F 43.0 °F 34% 29.96 in 10.0 mi SW 4.6 mph - N/A   Clear
12:53 PM 77.0 °F 44.1 °F 31% 29.93 in 10.0 mi South 6.9 mph - N/A   Clear
1:53 PM 81.0 °F 43.0 °F 26% 29.90 in 10.0 mi SE 9.2 mph - N/A   Clear
2:53 PM 84.0 °F 39.9 °F 21% 29.87 in 10.0 mi ESE 11.5 mph - N/A   Clear
3:53 PM 88.0 °F 35.1 °F 15% 29.84 in 10.0 mi SE 15.0 mph 19.6 mph N/A   Clear
4:53 PM 90.0 °F 35.1 °F 14% 29.83 in 10.0 mi SE 13.8 mph 20.7 mph N/A   Clear
5:53 PM 89.1 °F 37.0 °F 16% 29.82 in 10.0 mi ESE 20.7 mph - N/A   Clear
6:53 PM 87.1 °F 42.1 °F 21% 29.82 in 10.0 mi SE 20.7 mph 27.6 mph N/A   Clear
7:53 PM 84.0 °F 45.0 °F 25% 29.83 in 10.0 mi SE 17.3 mph - N/A   Clear
8:53 PM 81.0 °F 46.0 °F 29% 29.83 in 10.0 mi SSE 12.7 mph - N/A   Clear
9:53 PM 75.9 °F 46.9 °F 36% 29.86 in 10.0 mi SE 8.1 mph - N/A   Clear
10:53 PM 73.0 °F 48.0 °F 41% 29.87 in 10.0 mi East 9.2 mph - N/A   Clear
11:53 PM 72.0 °F 51.1 °F 48% 29.87 in 10.0 mi East 9.2 mph - N/A   Clear